Theta_e
314 316 314 313 318 320 321 323 323 322 322 325 329 330 330 331 327 323 321 322 324 321 323 324 324 317 316 315 317 315 319 324 325 321 321 320 321 319 321 325 330 331 327 328 332
312 315 316 313 314 318 319 322 323 323 323 324 327 329 330 327 324 322 323 321 322 322 320 324 323 315 314 318 318 319 319 322 322 319 321 320 321 321 325 327 330 332 330 330 333
311 313 315 315 312 316 319 319 322 323 322 325 326 330 328 325 324 324 323 321 321 320 321 324 321 314 317 316 320 322 322 321 319 315 318 319 319 318 323 326 324 328 330 330 333
312 311 314 314 314 312 317 318 319 321 322 325 327 328 327 325 333 324 326 321 321 320 322 320 317 318 319 318 317 323 320 322 319 315 315 318 317 319 321 321 319 324 329 330 331
311 310 312 314 313 311 313 318 318 320 322 322 326 326 323 323 324 321 324 323 322 321 319 320 318 319 324 319 320 320 320 321 320 317 315 313 315 316 315 314 320 328 330 330 331
310 310 311 313 313 311 311 313 318 318 321 321 322 324 322 326 321 321 321 324 323 321 319 319 320 320 324 326 323 323 320 322 317 314 314 314 315 314 315 319 327 329 329 329 329
311 310 309 313 313 311 310 312 316 317 319 321 322 323 321 321 321 322 321 322 321 321 321 320 320 321 318 321 322 326 324 320 317 314 315 316 317 316 314 325 328 329 327 328 329
311 310 309 311 313 311 310 309 314 316 318 319 322 321 321 320 321 322 322 321 322 322 320 320 321 321 321 319 318 324 323 327 320 316 316 316 321 318 314 326 327 327 326 326 327
311 311 308 311 312 310 311 310 312 315 316 318 321 319 320 320 319 321 321 321 320 320 320 320 321 322 319 320 321 318 324 324 324 316 317 317 319 317 315 321 323 325 326 327 326
312 311 309 311 311 310 311 310 311 314 314 316 316 317 314 319 319 320 320 320 321 321 321 321 323 326 323 325 327 322 324 323 325 320 317 317 315 316 317 314 314 317 324 326 327
312 310 309 310 311 310 310 311 311 311 311 309 310 312 313 319 319 319 320 321 321 322 323 321 324 327 327 325 322 320 322 323 321 320 318 319 317 316 315 314 313 310 311 322 326
310 310 310 311 311 310 310 310 309 309 313 309 309 310 313 318 320 319 320 322 321 323 323 323 325 322 324 324 324 324 325 324 322 321 319 321 321 317 315 316 315 315 310 309 315
310 309 309 310 310 310 310 309 309 310 310 309 309 310 311 316 318 321 319 320 322 322 323 324 322 320 323 324 325 323 324 324 325 319 317 319 321 320 316 316 316 315 315 312 311
310 309 308 309 310 311 310 309 309 308 305 309 309 309 310 312 316 318 320 320 322 324 320 321 320 321 323 325 324 325 321 325 326 322 326 319 326 323 320 319 317 318 315 315 311
311 309 309 309 309 310 309 309 308 307 302 305 308 308 310 313 313 316 319 318 321 323 322 323 321 321 323 323 321 323 322 325 323 321 323 325 328 323 319 320 319 319 318 317 314
309 310 310 309 308 308 309 309 308 309 308 309 310 312 314 312 313 315 318 317 317 320 320 320 317 320 321 320 321 319 321 321 320 322 328 324 325 322 321 320 319 318 316 316 315
311 309 309 307 308 308 309 309 311 312 304 312 311 311 311 313 313 315 318 320 322 322 323 322 320 318 318 321 322 322 324 327 329 328 324 317 321 321 318 318 318 319 317 313 313
310 309 308 307 308 309 309 311 312 309 306 310 310 311 311 311 312 314 314 318 318 318 318 321 322 320 319 321 322 323 323 320 324 323 319 317 323 320 318 318 317 314 313 312 311
308 308 307 307 309 309 309 312 310 306 309 312 310 313 312 311 310 312 314 314 314 319 321 323 321 318 318 317 320 323 325 315 314 300 313 316 314 313 312 313 312 312 313 313 311
308 307 307 308 308 308 309 310 307 307 310 311 313 311 311 312 310 312 313 312 313 313 316 320 322 319 318 318 318 321 320 322 316 315 318 316 315 317 314 317 315 313 313 314 309
306 307 306 308 308 309 310 309 303 305 308 312 313 314 311 312 311 311 310 310 312 314 315 318 320 319 319 321 323 321 323 320 318 314 317 315 315 310 315 314 314 314 311 309 307
301 304 306 307 309 308 308 303 303 307 306 307 308 309 312 310 311 311 310 309 308 312 319 317 318 319 322 319 317 320 321 322 324 321 314 313 316 309 310 310 312 312 309 306 304
300 301 304 306 306 305 302 302 304 307 306 306 306 306 308 312 313 311 311 308 310 310 315 316 317 320 321 320 315 321 321 321 321 313 319 320 318 307 303 304 304 309 306 304 303
298 303 301 301 298 300 301 303 302 302 305 306 305 305 307 308 307 309 311 311 307 312 311 315 314 317 319 319 320 322 322 320 322 322 321 319 318 311 307 306 305 305 304 303 302
294 297 298 305 299 298 301 302 302 303 302 303 304 304 305 307 307 307 307 307 307 308 309 316 316 313 313 316 318 321 321 321 323 321 321 319 317 316 312 306 304 304 304 303 303
297 297 291 287 297 297 300 301 302 302 302 303 303 303 304 303 304 305 306 307 308 309 310 313 318 315 316 314 316 319 321 321 320 322 321 320 318 314 312 304 304 304 304 303 304
295 294 295 299 296 299 299 300 301 301 302 301 302 303 304 303 302 301 304 307 309 310 311 313 316 316 318 315 315 319 320 321 321 320 320 322 319 310 309 307 304 303 303 304 304
Wind_Speed
32 30 29 29 27 23 22 22 22 22 21 22 24 25 25 23 19 13 9 7 11 2 2 3 2 2 1 3 2 3 3 2 3 4 3 4 4 1 2 5 2 1 6 3 27
33 33 30 29 29 26 23 21 21 21 20 21 21 26 27 24 18 11 13 14 7 7 2 2 1 1 2 1 2 3 3 6 2 3 4 5 4 7 4 3 1 0 2 13 28
34 33 33 29 30 27 25 23 22 21 21 20 22 23 25 25 6 8 22 16 6 7 3 3 2 1 2 1 2 3 4 3 2 1 4 4 1 1 7 3 6 7 6 13 18
36 35 34 31 29 30 26 23 22 23 21 20 22 24 26 20 8 9 26 19 12 7 2 2 1 4 4 5 3 3 5 4 4 1 3 3 4 3 6 5 1 8 16 18 15
38 37 35 33 30 29 28 23 23 22 22 23 21 27 22 5 4 6 19 28 18 10 2 1 3 4 5 5 3 4 3 4 2 4 2 4 5 4 6 5 6 10 12 14 15
41 37 36 34 32 30 27 27 23 22 23 25 25 27 7 10 7 10 17 25 19 13 5 2 3 3 3 2 5 2 6 4 2 1 2 5 3 2 3 2 6 10 11 12 15
42 39 37 36 33 30 30 25 24 20 21 24 23 25 4 9 15 10 25 27 24 15 5 8 6 3 2 2 3 2 1 0 4 3 3 4 5 6 2 4 6 8 7 8 13
43 40 38 38 34 31 28 27 25 19 20 24 25 15 5 9 15 18 15 15 20 13 8 3 6 3 2 2 3 3 2 3 3 6 3 6 8 6 7 7 8 9 8 10 11
44 43 39 39 35 33 29 28 25 18 15 22 20 7 5 11 8 21 18 16 17 17 8 7 5 2 2 5 2 4 4 5 2 7 3 5 5 7 4 8 9 9 8 9 7
45 43 42 41 38 34 30 28 23 20 16 17 6 5 4 6 15 18 14 22 6 13 6 4 2 1 1 5 8 5 3 3 6 6 5 5 8 6 4 6 11 8 8 8 10
47 46 42 44 40 37 32 27 10 2 8 6 6 1 5 10 22 14 18 11 5 2 6 3 7 8 5 7 2 5 4 5 3 3 4 7 12 10 11 6 8 8 9 10 13
50 47 43 44 42 39 38 9 17 7 9 4 5 4 3 5 7 12 23 10 8 10 10 5 18 24 5 3 7 3 2 3 4 3 4 7 14 10 8 9 9 10 9 12 12
50 49 45 46 44 40 36 17 20 25 5 3 0 1 2 2 6 18 18 6 10 12 16 10 2 12 8 6 8 4 6 3 5 2 3 3 12 11 8 12 9 9 11 10 15
53 49 47 46 37 34 24 27 29 7 4 5 7 6 4 5 3 13 18 7 5 16 15 8 4 15 14 10 10 11 7 5 4 3 5 5 7 7 6 14 10 16 13 15 13
52 51 50 54 29 23 34 28 23 3 2 9 8 9 9 8 7 8 23 2 9 9 7 9 12 14 13 17 14 6 7 11 1 3 5 4 4 5 2 7 10 15 16 15 13
55 55 53 38 29 32 36 30 13 5 9 7 8 15 12 7 1 4 5 1 3 3 8 8 4 11 9 9 15 6 5 2 3 2 10 10 9 6 8 7 8 9 12 13 11
56 56 54 36 18 42 46 17 9 7 3 9 10 20 22 12 11 7 12 18 11 15 16 12 10 3 6 6 6 8 9 3 6 7 11 6 8 20 6 9 11 14 13 10 10
56 54 44 27 39 47 31 11 11 6 7 3 9 16 18 13 12 10 9 14 21 17 6 13 11 15 15 13 10 25 17 5 8 6 5 4 10 7 13 18 17 11 11 8 9
53 36 31 33 48 41 16 15 7 5 7 8 14 12 9 11 7 10 15 21 16 24 12 15 17 7 10 7 15 9 14 8 5 2 2 5 8 7 10 11 10 11 10 13 9
34 24 21 41 45 24 13 10 5 0 4 12 7 12 13 22 9 19 17 18 22 26 21 4 11 9 14 3 4 13 14 5 1 4 6 6 6 10 6 21 19 12 12 13 8
24 8 20 39 33 13 15 10 4 2 3 6 5 8 14 14 17 25 12 7 24 16 22 8 3 1 11 16 23 11 15 8 6 5 5 3 8 8 19 16 18 19 10 9 9
4 4 28 38 9 7 8 9 5 8 4 5 1 4 7 19 15 18 25 23 11 11 17 11 0 3 18 10 14 19 13 20 7 13 4 2 11 5 10 8 4 8 8 6 6
4 2 12 23 6 5 6 6 4 4 4 5 3 3 3 5 12 18 9 15 6 18 17 19 6 5 5 7 4 17 23 25 24 2 17 10 15 4 5 6 8 8 8 8 7
4 4 3 3 1 5 8 7 5 3 6 5 3 5 5 2 1 4 12 2 2 7 23 14 11 9 14 6 5 20 25 24 25 14 24 21 29 5 5 6 5 6 8 8 9
3 1 1 9 4 5 5 9 9 6 3 6 4 7 8 5 8 7 7 5 8 3 3 11 21 23 24 18 8 12 26 26 24 33 19 31 20 23 12 7 8 6 5 7 8
4 4 2 3 9 7 4 7 15 5 8 6 5 15 9 7 10 9 10 7 5 4 5 6 6 17 23 22 22 20 20 26 27 30 25 32 24 9 12 5 3 8 9 10 12
3 3 5 4 4 5 5 6 7 7 3 6 12 5 10 17 8 4 6 5 5 8 8 4 10 7 17 13 8 14 29 29 31 34 33 31 40 6 9 12 13 11 12 16 16
Wind_Direction
224 213 216 219 216 214 211 213 208 208 209 208 203 202 194 186 187 183 204 201 213 288 246 242 266 21 45 12 15 112 60 194 209 179 218 188 136 101 86 118 69 30 153 248 161
218 219 210 214 216 212 210 211 207 204 204 203 203 204 185 179 175 212 204 200 205 224 311 261 246 56 52 346 345 100 131 218 244 202 197 186 169 162 131 135 146 86 18 154 160
215 218 211 207 213 210 209 208 204 203 198 195 197 191 184 174 147 226 205 194 179 182 216 260 220 135 138 117 201 161 177 239 265 133 150 141 128 248 122 229 206 192 165 155 162
215 212 213 206 206 210 205 206 204 201 198 196 191 194 185 175 215 205 206 193 171 156 146 203 160 147 161 187 190 164 248 234 295 47 84 168 131 204 191 225 280 188 161 166 177
217 210 211 208 203 206 206 203 200 198 194 195 181 178 157 206 235 186 188 196 191 166 196 200 214 144 188 194 158 158 230 266 288 282 240 140 217 229 236 254 89 137 157 178 186
215 208 206 207 201 201 200 200 200 195 191 192 184 165 144 191 166 199 183 175 177 157 187 163 315 241 171 186 175 189 208 243 269 241 233 175 239 120 263 144 125 153 181 189 191
213 210 201 203 201 197 198 194 195 194 192 190 188 175 191 214 173 149 162 172 164 167 108 72 8 294 111 159 254 215 56 234 236 213 239 136 285 228 205 155 173 187 189 203 206
210 208 200 199 199 194 191 190 188 188 190 186 186 170 201 150 173 153 152 149 170 188 188 4 322 292 190 216 45 144 134 229 236 157 250 154 253 246 210 159 207 215 208 207 215
207 207 201 195 193 190 185 183 180 173 174 182 169 166 198 189 198 183 176 143 141 120 133 153 56 309 359 117 52 353 191 181 254 199 130 192 253 240 202 184 220 229 224 221 223
202 204 200 192 188 185 180 174 167 151 142 137 96 139 190 208 168 183 163 151 122 123 100 140 72 273 215 191 202 188 181 193 194 210 200 234 252 278 256 192 229 234 229 219 226
199 199 198 189 186 180 170 149 129 137 191 183 184 167 141 140 168 180 180 152 105 135 157 146 204 234 201 219 176 152 169 175 219 263 196 237 250 247 260 246 243 239 228 228 226
198 195 193 185 179 176 162 172 170 168 158 51 119 71 68 147 150 176 170 168 175 191 124 149 214 210 186 251 222 160 206 219 296 272 174 284 268 242 238 248 233 227 227 231 235
193 192 189 183 176 170 172 162 159 133 127 204 150 119 148 139 175 184 171 160 175 172 180 194 326 169 183 178 204 196 177 189 206 317 220 279 272 264 241 237 240 234 226 220 222
185 186 188 180 162 168 175 159 159 158 102 192 194 241 159 174 240 173 202 152 198 201 188 222 182 173 182 210 200 228 170 205 219 166 227 160 280 247 237 244 236 247 226 231 226
179 181 179 178 162 175 172 165 161 70 106 180 170 168 152 189 136 196 189 169 190 159 164 199 193 182 193 199 190 206 159 209 245 277 339 217 275 268 254 256 246 245 240 231 224
175 177 176 168 164 167 164 159 138 146 227 165 146 170 161 197 138 105 157 62 87 199 207 214 192 179 196 183 180 130 94 91 73 130 255 223 216 205 213 207 241 249 248 238 225
172 177 174 165 159 164 159 143 181 198 195 161 171 176 174 177 188 159 181 194 192 193 205 204 194 177 161 146 146 174 159 186 199 211 244 182 199 245 231 236 241 251 248 243 236
172 174 166 162 160 161 156 166 197 162 188 165 146 160 185 143 199 170 164 205 217 210 173 205 214 182 195 195 176 197 185 170 194 204 258 92 232 244 211 230 244 236 252 269 256
166 155 153 162 163 158 159 191 194 167 145 139 131 163 178 195 148 165 208 210 215 211 210 197 225 153 190 181 162 188 208 187 99 64 50 218 282 288 250 262 260 243 234 246 247
147 146 155 160 163 159 170 182 145 195 122 144 150 177 182 185 160 190 186 213 214 219 209 237 231 199 187 125 245 184 179 183 140 165 245 255 264 236 233 223 231 244 224 234 229
133 141 157 156 154 171 191 177 135 222 109 154 157 156 196 181 196 195 210 220 200 205 200 218 196 259 165 199 192 188 194 197 182 173 196 258 254 209 217 216 232 232 208 210 215
92 108 152 154 165 188 172 151 164 148 101 128 149 93 152 178 193 191 218 207 180 186 201 188 123 227 222 213 227 208 205 203 213 218 222 178 257 242 235 251 286 233 204 199 199
91 89 134 166 175 155 128 133 126 127 178 148 122 92 99 141 197 204 204 228 126 189 193 200 195 209 172 242 273 212 208 202 212 83 216 218 255 194 224 251 231 225 208 187 175
101 122 80 95 40 124 122 144 115 116 141 147 114 72 123 112 322 165 248 324 16 195 213 176 204 219 232 244 122 213 215 213 206 224 234 227 247 233 240 254 253 217 204 183 170
55 105 140 168 165 138 111 146 132 150 157 161 136 176 164 152 165 204 205 217 277 309 315 236 228 230 234 236 247 237 217 209 206 222 218 240 236 241 264 241 227 217 163 166 180
118 132 64 92 117 92 164 190 171 151 146 203 193 197 176 179 189 178 173 186 187 196 230 235 238 221 243 246 243 242 230 216 217 226 230 248 245 226 219 274 213 206 192 193 199
73 59 95 121 104 128 205 180 161 113 170 151 200 130 203 227 222 200 189 153 168 167 177 266 236 226 233 222 227 246 219 219 218 225 217 230 235 130 192 213 218 213 204 208 203